Location: ??????????
(44.2167°N, 135.5333°E)
Time: 15:22:33
(UTC+00:00)

Cosmos 2242 Rocket - Pass Details

Date: 15 June 2025
Orbit: 613 x 646 km, 82.5° (Epoch: 16 July)

Event Time Altitude Azimuth Distance (km) Brightness Sun altitude
Exits shadow 15:45:35 58° 223° (SW) 737 3.6 -21.6°
Maximum altitude 15:46:18 71° 279° (W) 670 3.6 -21.6°
Drops below altitude 10° 15:50:46 10° 4° (N) 2,012 7.3 -21.4°
Sets 15:53:00 0° 7° (N) 2,918 8.5 -21.3°
